Regional Weather Roundup
Issued by NWS Sterling, VA

Home | Current Version | Previous Version | Text Only | Print | Product List | Glossary Off
Versions: 1 2 3 4 5 6 7 8 9 10 11 12 13 14 15 16 17 18 19 20 21 22 23 24 25 26 27 28 29 30 31 32 33 34 35 36 37 38 39 40 41 42 43 44 45 46 47 48 49 50

000
ASUS41 KLWX 212210
RWRLWX

REGIONAL WEATHER ROUNDUP
NATIONAL WEATHER SERVICE BALTIMORE MD/WASHINGTON DC
600 PM EDT THU AUG 21 2014

Note: "FAIR" indicates few or no clouds below 12,000 feet
with no significant weather and/or obstructions to visibility.
 TC=TEMPERATURE CELSIUS

 * =Non NWS site. Station does not report precipitation (e.g. rain,
    snow, etc.), thunder, or fog.

DCZ001-MDZ009-015-VAZ040>042-051-053>054-212300-
WASHINGTON METRO
  /KDAA//-FT BELVOIR

CITY           SKY/WX    TMP DP  RH WIND       PRES   REMARKS
WASHINGTON NAT LGT RAIN  81  71  71 W10       30.00R
DULLES         TSTM      72  70  93 S9        30.01S
ANDREWS AFB    LGT RAIN  80  73  79 SW10      30.00S
QUANTICO       CLOUDY    84  73  70 S3        30.00S THUNDER HX  91
COLLEGE PARK*  CLOUDY    82  72  69 W3        29.99S
LEESBURG*      CLOUDY    75  73  94 S3        30.01F
MANASSAS*      MOSUNNY   81  70  69 CALM      30.00
GAITHERSBURG*  CLOUDY    79  70  73 W3        30.05R

$$

MDZ006>007-011-014-212300-
BALTIMORE METRO

CITY           SKY/WX    TMP DP  RH WIND       PRES   REMARKS
BWI AIRPORT    CLOUDY    82  73  74 S5        29.98S
MD SCIENCE CTR   N/A     82  73  74 MISG      29.98S
MARTIN STATE   CLOUDY    82  75  78 SE5       30.00R
ANNAPOLIS      CLOUDY    81  71  71 S5        29.98S
FORT MEADE*    CLOUDY    79  72  78 S3        30.01S

$$

MDZ012-015-019>023-212300-
MARYLAND EASTERN SHORE

CITY           SKY/WX    TMP DP  RH WIND       PRES   REMARKS
OCEAN CITY     PTSUNNY   78  72  81 S6        30.01F
SALISBURY      CLOUDY    79  74  84 SE9       30.00S
BAY BRIDGE AP*   N/A     82  68  61 CALM      29.99R
CAMBRIDGE*     CLOUDY    84  72  65 S3        29.98S
EASTON*        SUNNY     86  72  62 CALM      30.02F HX  92

$$

MDZ017>025-212300-
SOUTHERN MARYLAND

CITY           SKY/WX    TMP DP  RH WIND       PRES   REMARKS
PATUXENT RIVER CLOUDY    81  74  79 SE5       29.99S
ST INIGOES     CLOUDY    81  71  71 S7        29.98F
LEONARDTOWN*   CLOUDY    82  72  69 CALM      30.01S

$$

MDZ003>005-212300-
NORTH CENTRAL MARYLAND

CITY           SKY/WX    TMP DP  RH WIND       PRES   REMARKS
FREDERICK*     MOSUNNY   81  72  74 S6        30.02S
HAGERSTOWN APT CLOUDY    75  69  81 S3        29.99F
WESTMINSTER*   CLOUDY    79  72  78 CALM      30.01S

$$

MDZ501>502-212300-
WESTERN MARYLAND

CITY           SKY/WX    TMP DP  RH WIND       PRES   REMARKS
OAKLAND*       CLOUDY    64 N/A N/A SW6       30.14F HAZE
CUMBERLAND*    CLOUDY    81  63  54 W8        30.06F

$$

VAZ025>031-212300-
SHENANDOAH VALLEY

CITY           SKY/WX    TMP DP  RH WIND       PRES   REMARKS
WINCHESTER*    CLOUDY    81  66  61 W7        30.01F
STAUNTON*      CLOUDY    82  66  58 NW5       30.06F

$$

WVZ021-048>050-054>055-212300-
EASTERN WEST VIRGINIA PANHANDLE

CITY           SKY/WX    TMP DP  RH WIND       PRES   REMARKS
MARTINSBURG    CLOUDY    79  68  69 SW3       30.00F
PETERSBURG*    NOT AVBL

$$

VAZ036>039-050-212300-
CENTRAL FOOTHILLS

CITY           SKY/WX    TMP DP  RH WIND       PRES   REMARKS
CHARLOTTESVILL CLOUDY    82  70  66 SW5       30.01F
ORANGE*        CLOUDY    82  70  65 CALM      30.02F

$$

VAZ055>057-212300-
NORTH AND CENTRAL PIEDMONT

CITY           SKY/WX    TMP DP  RH WIND       PRES   REMARKS
FREDERICKSBRG* CLOUDY    84  73  69 CALM      29.99S HX  90
STAFFORD*      CLOUDY    81  76  85 CALM      30.04S

$$

NCZ024-NYZ072-PAZ021-071-VAZ022-071-212300-
OTHER REGIONAL OBSERVATIONS

CITY           SKY/WX    TMP DP  RH WIND       PRES   REMARKS
NEW YORK CITY  MOSUNNY   76  55  48 S8G16     30.04F
PHILADELPHIA   CLOUDY    82  69  64 S8        29.99F
PITTSBURGH     CLOUDY    75  66  73 SW7       30.03R
ROANOKE        TSTM      80  69  69 W13       30.08S
RICHMOND       CLOUDY    88  68  51 W8        30.00S HX  91
RALEIGH        PTSUNNY   88  68  51 NW6       30.03F HX  91

$$

ANZ530>537-212300-
MARINE OBSERVATIONS

STATION/POSITION TIME  TEMP    WIND        PRES
                       AIR SEA DIR/SP/G
                 (UTC) (F)     (DEG/KT/KT) (MB)
THOMAS PT LIGHT  2200   80 79  200/  8/  8 1015.9S
BALT KEY BRIDGE  2200   81     140/  7/  8 1015.1R
COVE POINT       2200   80     190/  8/  9 1015.3S
LEWISETTA        2200   82 82  160/  5/  6 1015.2S
SOLOMONS ISLAND  2200      80                N/A
PINEY POINT      2200          160/  7/  8   N/A

$$



USA.gov is the U.S. government's official web portal to all federal, state and local government web resources and services.